Regional Weather Roundup
Issued by NWS

Home | Current Version | Previous Version | Text Only | Print | Product List | Glossary On
Versions: 1 2 3 4 5 6 7 8 9 10 11 12 13 14 15 16 17 18 19 20 21 22 23 24 25 26 27 28
000
ASUS45 KTFX 271710
RWRMT
MONTANA REGIONAL WEATHER ROUNDUP
NATIONAL WEATHER SERVICE GREAT FALLS MT
1100 AM MDT SAT AUG 27 2016

NOTE: "FAIR" INDICATES FEW OR NO CLOUDS BELOW 12000 FEET WITH NO
SIGNIFICANT WEATHER AND/OR OBSTRUCTIONS TO VISIBILITY.

MTZ001>007-043-271800-
WEST OF THE DIVIDE

CITY           SKY/WX    TMP DP  RH WIND       PRES   REMARKS
KALISPELL      MOSUNNY   75  43  31 SE16      29.79F
MISSOULA       MOSUNNY   66  38  35 CALM      29.90F
BUTTE          CLOUDY    67  33  28 VRB6      30.01F
MULLAN PASS    PTSUNNY   56  34  43 SW10G17   29.97S
DEER LODGE       N/A     72  36  26 SE9G16    29.97S
EUREKA           N/A     77  41  27 SE12G20   29.74F
HAMILTON         N/A     70  39  32 S8        29.91F
LIBBY            N/A     72  43  35 CALM      29.76F
PLAINS           N/A     75  43  31 E5        29.83F
RONAN            N/A     75  40  28 SE12      29.89F
$$

MTZ008-052>055-271800-
SOUTHWEST MONTANA

CITY           SKY/WX    TMP DP  RH WIND       PRES   REMARKS
BOZEMAN        CLOUDY    64  41  42 CALM      29.97F
DILLON         MOSUNNY   65  33  30 SW9       30.01F
W YELLOWSTONE  SUNNY     63  28  27 SW15G28   30.14S
ENNIS          SUNNY     72  27  18 S10G18    30.06S
THREE FORKS      N/A     65  -2   7 CALM      29.96F
TWIN BRIDGES     N/A     64  34  32 SE6       29.99F
$$

MTZ009-010-012-014-046-048-049-054-271800-
EAST SLOPES AND CENTRAL MONTANA

CITY           SKY/WX    TMP DP  RH WIND       PRES   REMARKS
CUT BANK       MOSUNNY   73  38  27 SW22G32   29.75F
GREAT FALLS    MOSUNNY   76  35  22 SW23G29   29.81F
MALMSTROM AFB  CLOUDY    75  37  25 MISG      29.82S
HELENA         MOSUNNY   65  39  38 CALM      29.91F
CHOTEAU          N/A     77  36  22 SW15G23   29.81F
CONRAD           N/A     75  45  34 S8        29.82F
$$

MTZ011-013-016-021-045-047-050-051-271800-
NORTH CENTRAL MONTANA

CITY           SKY/WX    TMP DP  RH WIND       PRES   REMARKS
HAVRE          CLOUDY    76  39  26 SW21G29   29.74S
LEWISTOWN      CLOUDY    76  38  25 W17       29.87F
N BAR RANCH      N/A     73  34  23 W12G23    29.91S
CHINOOK          N/A     68  52  56 E5        29.75F
$$

MTZ017>020-022>027-061-062-271800-
NORTHEAST MONTANA

CITY           SKY/WX    TMP DP  RH WIND       PRES   REMARKS
GLASGOW        MOSUNNY   70  46  42 SE17      29.81F
JORDAN           N/A     73  45  36 S13       29.83F
SIDNEY         SUNNY     69  51  52 S7        29.89F
WOLF POINT     SUNNY     74  47  38 VRB3      29.84F
POPLAR           N/A     72  45  37 S6        29.86F
SCOBEY           N/A     70  44  38 S6        29.85F
$$

MTZ028>42-056>058-271800-
SOUTHCENTRAL AND SOUTHEAST MONTANA

CITY           SKY/WX    TMP DP  RH WIND       PRES   REMARKS
BAKER          SUNNY     72  42  34 S7        29.93F
BILLINGS       PTSUNNY   66  44  45 SW12      29.90F
LIVINGSTON     CLOUDY    67  35  30 W12       29.96F
MILES CITY     SUNNY     73  46  38 SE9       29.87F
EKALAKA          N/A     72  47  40 SE6       29.93F
FORSYTH          N/A     70  52  52 CALM      29.87F
LAUREL           N/A     69  42  37 SW10      29.91F
ROUNDUP          N/A     67  43  41 S9        29.82F
$$

REGIONAL REPORTS...DAKOTAS

CITY           SKY/WX    TMP DP  RH WIND       PRES   REMARKS
WILLISTON      SUNNY     70  47  43 VRB5      29.90F
MINOT          SUNNY     70  50  49 S7        29.90F
DICKINSON      SUNNY     67  45  45 CALM      29.91F
CROSBY           N/A     72  46  40 S10       29.90F
WATFORD CITY     N/A     68  46  45 CALM      29.91F
BISMARCK       SUNNY     71  51  49 VRB3      29.94S
GRAND FORKS    CLOUDY    63  58  83 S15       29.93F
FARGO          CLOUDY    69  62  78 S14       29.94F
BUFFALO SD       N/A     70  54  56 VRB6      29.89F
RAPID CITY     SUNNY     70  55  59 S12       29.97F
$$

REGIONAL REPORTS...WYOMING/IDAHO/WASHINGTON

CITY           SKY/WX    TMP DP  RH WIND       PRES   REMARKS
GILLETTE       SUNNY     74  44  34 S12       29.96F
SHERIDAN       SUNNY     73  50  44 NE5       29.93F
BUFFALO WY     CLOUDY    71  40  32 SE9       29.99F
CODY           CLOUDY    66  34  30 W9G17     30.01S
YELLOWSTONE LA   N/A     59  29  31 VRB6      30.20F
IDAHO FALLS    SUNNY     70  32  24 SW14      30.07F
SALMON         SUNNY     59  37  44 NE3       30.01F
BOISE          SUNNY     76  32  20 SE7       29.95S
SPOKANE        MOSUNNY   75  39  27 S15G23    29.79R
$$

REGIONAL REPORTS...ALBERTA

CITY           SKY/WX    TMP DP  RH WIND       PRES   REMARKS
EDMONTON       LGT RAIN  59  52  77 CALM      29.56S
CALGARY        PTSUNNY   64  50  59 SW9       29.61F
LETHBRIDGE     PTSUNNY   81  41  24 SW21G28   29.65F
MEDICINE HAT   PTSUNNY   75  46  35 S15G22    29.63F
WATERTON GATE    N/A     64  39  39 SW15G26     N/A
CARDSTON         N/A     72  41  33 SW9         N/A
MILK RIVER       N/A     75  41  29 SW16G23     N/A
ONEFOUR          N/A     77  39  25 S12G18      N/A
$$

REGIONAL REPORTS...SASKATCHEWAN

CITY           SKY/WX    TMP DP  RH WIND       PRES   REMARKS
SWIFT CURRENT  PTSUNNY   66  48  52 S21       29.72F
REGINA         MOSUNNY   68  48  49 S10       29.83F
SASKATOON      PTSUNNY   66  48  52 S18G25    29.75F
CYPRESS HILLS    N/A     61  45  55 S8          N/A
VAL MARIE        N/A     70  45  40 S16         N/A
ROCKGLEN         N/A     68  43  40 S17G24      N/A
$$




USA.gov is the U.S. government's official web portal to all federal, state and local government web resources and services.